MAS128 YMML-WMKK

Flight info

Callsign MAS128
Flight time N/A
Altitude 38000
Route KEPPA H164 LEC A461 AS A587 ONOXA G326 BLI M635 RAFIS/N0480F430 M635 JUNHA DCT IRTAD A464 SJ G579 VJB A457 GUPTA GUPTA1G
Aircraft A359/H-SDE2E3GHIJ3J4J5LM1ORWXY/LB1D1

Departure

Time N/A
Airport Melbourne Airport (YMML)

Arrival

Time 2026-05-04 00:10
Airport Kuala Lumpur International Airport (WMKK)
Time Latitude Longitude Altitude Speed Heading
2026-05-03 20:15 -15.09877 124.05239 39935 ft 462 kts 309°
2026-05-03 20:15 -15.05368 124.00528 39936 ft 463 kts 309°
2026-05-03 20:16 -15.01598 123.96591 39937 ft 463 kts 309°
2026-05-03 20:16 -14.96312 123.91074 39934 ft 463 kts 309°
2026-05-03 20:17 -14.92532 123.87131 39935 ft 463 kts 309°
2026-05-03 20:17 -14.87985 123.82392 39936 ft 464 kts 309°
2026-05-03 20:18 -14.83439 123.77657 39939 ft 464 kts 309°
2026-05-03 20:18 -14.78884 123.72915 39935 ft 464 kts 310°
2026-05-03 20:19 -14.74357 123.68205 39938 ft 464 kts 310°
2026-05-03 20:19 -14.69793 123.63459 39939 ft 465 kts 310°
2026-05-03 20:20 -14.65260 123.58750 39937 ft 465 kts 310°
2026-05-03 20:20 -14.60700 123.54014 39940 ft 465 kts 310°
2026-05-03 20:21 -14.56126 123.49267 39937 ft 465 kts 310°
2026-05-03 20:21 -14.51586 123.44559 39938 ft 465 kts 310°
2026-05-03 20:22 -14.47007 123.39813 39937 ft 465 kts 310°
2026-05-03 20:22 -14.42430 123.35071 39939 ft 466 kts 310°
2026-05-03 20:23 -14.37846 123.30326 39939 ft 466 kts 310°
2026-05-03 20:23 -14.33294 123.25617 39937 ft 466 kts 310°
2026-05-03 20:24 -14.28709 123.20877 39937 ft 466 kts 310°
2026-05-03 20:24 -14.24123 123.16138 39939 ft 466 kts 310°
2026-05-03 20:25 -14.19565 123.11431 39939 ft 466 kts 310°
2026-05-03 20:25 -14.14971 123.06689 39937 ft 467 kts 310°
2026-05-03 20:26 -14.10376 123.01950 39940 ft 467 kts 310°
2026-05-03 20:26 -14.05805 122.97239 39939 ft 467 kts 310°
2026-05-03 20:27 -14.01212 122.92507 39939 ft 467 kts 310°
2026-05-03 20:27 -13.96608 122.87766 39939 ft 467 kts 310°
2026-05-03 20:28 -13.92006 122.83031 39937 ft 468 kts 310°
2026-05-03 20:28 -13.87397 122.78292 39939 ft 468 kts 310°
2026-05-03 20:29 -13.82815 122.73583 39937 ft 468 kts 310°
2026-05-03 20:29 -13.78193 122.68835 39940 ft 468 kts 310°
2026-05-03 20:30 -13.73574 122.64093 39938 ft 469 kts 310°
2026-05-03 20:30 -13.68981 122.59382 39939 ft 469 kts 310°
2026-05-03 20:31 -13.64342 122.54625 39938 ft 469 kts 310°
2026-05-03 20:31 -13.59733 122.49902 39939 ft 470 kts 310°
2026-05-03 20:32 -13.55114 122.45172 39939 ft 470 kts 310°
2026-05-03 20:32 -13.50448 122.40396 39940 ft 470 kts 310°
2026-05-03 20:33 -13.45838 122.35681 39939 ft 470 kts 310°
2026-05-03 20:33 -13.41185 122.30924 39940 ft 471 kts 310°
2026-05-03 20:34 -13.36565 122.26203 39936 ft 471 kts 310°
2026-05-03 20:34 -13.31904 122.21444 39941 ft 471 kts 310°
2026-05-03 20:35 -13.27252 122.16696 39937 ft 472 kts 310°
2026-05-03 20:35 -13.22616 122.11967 39939 ft 472 kts 310°
2026-05-03 20:36 -13.17947 122.07209 39938 ft 472 kts 310°
2026-05-03 20:36 -13.13273 122.02446 39937 ft 473 kts 310°
2026-05-03 20:37 -13.08620 121.97709 39938 ft 473 kts 310°
2026-05-03 20:37 -13.03944 121.92950 39938 ft 474 kts 310°
2026-05-03 20:38 -12.99244 121.88171 39937 ft 474 kts 310°
2026-05-03 20:38 -12.94580 121.83430 39938 ft 474 kts 310°
2026-05-03 20:39 -12.89883 121.78658 39938 ft 474 kts 310°
2026-05-03 20:39 -12.85220 121.73923 39939 ft 474 kts 310°
2026-05-03 20:40 -12.80516 121.69150 39941 ft 475 kts 310°
2026-05-03 20:40 -12.75839 121.64406 39935 ft 475 kts 311°
2026-05-03 20:41 -12.71126 121.59629 39934 ft 475 kts 311°
2026-05-03 20:41 -12.66448 121.54890 39932 ft 476 kts 311°
2026-05-03 20:42 -12.61737 121.50120 39932 ft 476 kts 311°
2026-05-03 20:42 -12.57027 121.45353 39933 ft 476 kts 311°
2026-05-03 20:43 -12.52304 121.40577 39933 ft 476 kts 311°
2026-05-03 20:43 -12.47620 121.35841 39930 ft 476 kts 311°
2026-05-03 20:44 -12.42901 121.31074 39931 ft 476 kts 311°
2026-05-03 20:44 -12.38202 121.26328 39934 ft 476 kts 311°
2026-05-03 20:45 -12.33472 121.21554 39927 ft 476 kts 311°
2026-05-03 20:45 -12.28748 121.16789 39930 ft 477 kts 311°
2026-05-03 20:46 -12.24048 121.12051 39932 ft 477 kts 311°
2026-05-03 20:46 -12.19316 121.07283 39928 ft 477 kts 311°
2026-05-03 20:47 -12.14580 121.02513 39930 ft 477 kts 311°
2026-05-03 20:47 -12.09877 120.97779 39920 ft 477 kts 311°
2026-05-03 20:48 -12.05135 120.93008 39922 ft 477 kts 311°
2026-05-03 20:48 -12.00582 120.88146 39920 ft 473 kts 304°
2026-05-03 20:49 -11.97052 120.82508 39920 ft 468 kts 296°
2026-05-03 20:49 -11.93889 120.76735 39922 ft 468 kts 295°
2026-05-03 20:50 -11.90746 120.70889 39921 ft 468 kts 295°
2026-05-03 20:50 -11.87612 120.65096 39915 ft 468 kts 295°
2026-05-03 20:51 -11.84441 120.59273 39916 ft 469 kts 295°
2026-05-03 20:51 -11.81264 120.53451 39932 ft 469 kts 295°
2026-05-03 20:52 -11.78101 120.47660 39930 ft 469 kts 295°
2026-05-03 20:52 -11.74920 120.41836 39926 ft 469 kts 295°
2026-05-03 20:53 -11.71758 120.36052 39928 ft 469 kts 296°
2026-05-03 20:53 -11.68573 120.30226 39923 ft 469 kts 296°
2026-05-03 20:54 -11.65384 120.24399 39913 ft 469 kts 296°
2026-05-03 20:54 -11.60619 120.15698 39926 ft 469 kts 296°
2026-05-03 20:55 -11.57424 120.09868 39923 ft 469 kts 296°
2026-05-03 20:55 -11.54249 120.04078 39923 ft 469 kts 296°
2026-05-03 20:56 -11.51071 119.98285 39922 ft 469 kts 296°
2026-05-03 20:56 -11.47873 119.92459 39922 ft 469 kts 296°
2026-05-03 20:57 -11.44692 119.86669 39921 ft 470 kts 296°
2026-05-03 20:57 -11.41500 119.80862 39914 ft 470 kts 296°
2026-05-03 20:58 -11.38303 119.75049 39924 ft 470 kts 296°
2026-05-03 20:58 -11.35105 119.69237 39925 ft 470 kts 296°
2026-05-03 20:59 -11.31903 119.63421 39918 ft 470 kts 296°
2026-05-03 20:59 -11.28716 119.57636 39919 ft 470 kts 296°
2026-05-03 21:00 -11.26574 119.53750 39922 ft 470 kts 296°
2026-05-03 21:00 -11.22319 119.46035 39918 ft 470 kts 296°
2026-05-03 21:01 -11.19103 119.40207 39919 ft 470 kts 296°
2026-05-03 21:01 -11.15915 119.34434 39914 ft 470 kts 296°
2026-05-03 21:02 -11.12696 119.28608 39912 ft 471 kts 296°
2026-05-03 21:02 -11.09501 119.22828 39915 ft 471 kts 296°
2026-05-03 21:03 -11.06283 119.17009 39911 ft 471 kts 296°
2026-05-03 21:03 -11.03061 119.11188 39916 ft 471 kts 296°
2026-05-03 21:04 -10.99851 119.05391 39911 ft 471 kts 296°
2026-05-03 21:04 -10.96624 118.99566 39913 ft 472 kts 296°
2026-05-03 21:05 -10.93935 118.94716 39901 ft 472 kts 296°
2026-05-03 21:05 -10.90709 118.88900 39914 ft 472 kts 296°
2026-05-03 21:06 -10.87473 118.83067 39910 ft 472 kts 296°
2026-05-03 21:06 -10.84257 118.77275 39911 ft 472 kts 296°
2026-05-03 21:07 -10.81020 118.71450 39915 ft 472 kts 296°
2026-05-03 21:07 -10.77801 118.65657 39910 ft 472 kts 296°
2026-05-03 21:08 -10.74560 118.59830 39914 ft 473 kts 296°
2026-05-03 21:08 -10.71313 118.53995 39900 ft 473 kts 297°
2026-05-03 21:09 -10.68089 118.48205 39911 ft 473 kts 297°
2026-05-03 21:09 -10.64836 118.42366 39911 ft 473 kts 297°
2026-05-03 21:10 -10.61601 118.36561 39911 ft 473 kts 297°
2026-05-03 21:10 -10.58345 118.30722 39906 ft 473 kts 297°
2026-05-03 21:11 -10.55090 118.24890 39910 ft 474 kts 297°
2026-05-03 21:11 -10.51854 118.19092 39915 ft 474 kts 297°
2026-05-03 21:12 -10.48593 118.13256 39908 ft 474 kts 297°
2026-05-03 21:12 -10.45351 118.07455 39912 ft 474 kts 297°
2026-05-03 21:13 -10.42093 118.01628 39906 ft 474 kts 297°
2026-05-03 21:13 -10.38826 117.95787 39910 ft 474 kts 297°
2026-05-03 21:14 -10.35559 117.89952 39910 ft 474 kts 297°
2026-05-03 21:14 -10.32318 117.84166 39907 ft 475 kts 297°
2026-05-03 21:15 -10.29043 117.78320 39910 ft 475 kts 297°
2026-05-03 21:15 -10.25785 117.72510 39898 ft 475 kts 297°
2026-05-03 21:16 -10.22514 117.66678 39904 ft 475 kts 297°
2026-05-03 21:16 -10.19232 117.60832 39909 ft 475 kts 297°
2026-05-03 21:17 -10.16506 117.55976 39906 ft 476 kts 297°
2026-05-03 21:17 -10.12695 117.49193 39902 ft 476 kts 297°
2026-05-03 21:18 -10.09410 117.43348 39904 ft 476 kts 297°
2026-05-03 21:18 -10.06122 117.37503 39907 ft 476 kts 297°
2026-05-03 21:19 -10.02847 117.31694 39908 ft 477 kts 298°
2026-05-03 21:19 -9.99439 117.25899 39907 ft 477 kts 299°
2026-05-03 21:20 -9.95987 117.20131 39896 ft 478 kts 299°
2026-05-03 21:20 -9.92572 117.14394 39903 ft 478 kts 299°
2026-05-03 21:21 -9.89137 117.08599 39907 ft 478 kts 298°
2026-05-03 21:21 -9.85712 117.02815 39907 ft 478 kts 298°
2026-05-03 21:22 -9.82301 116.97058 39905 ft 478 kts 299°
2026-05-03 21:22 -9.78864 116.91261 39905 ft 479 kts 299°
2026-05-03 21:23 -9.75443 116.85493 39906 ft 479 kts 299°
2026-05-03 21:23 -9.72014 116.79719 39909 ft 479 kts 299°
2026-05-03 21:24 -9.68591 116.73912 39898 ft 479 kts 298°
2026-05-03 21:24 -9.65171 116.68102 39904 ft 479 kts 299°
2026-05-03 21:25 -9.61749 116.62297 39903 ft 480 kts 299°
2026-05-03 21:25 -9.58340 116.56524 39905 ft 480 kts 299°
2026-05-03 21:26 -9.54908 116.50716 39899 ft 480 kts 299°
2026-05-03 21:26 -9.51467 116.44896 39900 ft 480 kts 299°
2026-05-03 21:27 -9.48045 116.39111 39903 ft 480 kts 299°
2026-05-03 21:27 -9.44609 116.33303 39900 ft 480 kts 299°
2026-05-03 21:28 -9.41191 116.27530 39896 ft 480 kts 299°
2026-05-03 21:28 -9.37747 116.21715 39900 ft 481 kts 299°
2026-05-03 21:29 -9.34315 116.15924 39897 ft 481 kts 299°
2026-05-03 21:29 -9.30871 116.10114 39894 ft 481 kts 299°
2026-05-03 21:30 -9.27416 116.04289 39897 ft 481 kts 299°
2026-05-03 21:30 -9.23988 115.98513 39892 ft 481 kts 299°
2026-05-03 21:31 -9.20538 115.92702 39903 ft 481 kts 299°
2026-05-03 21:31 -9.17094 115.86903 39896 ft 481 kts 299°
2026-05-03 21:32 -9.13637 115.81085 39897 ft 481 kts 299°
2026-05-03 21:32 -9.10185 115.75278 39897 ft 481 kts 299°
2026-05-03 21:33 -9.06745 115.69495 39898 ft 481 kts 299°
2026-05-03 21:33 -9.03292 115.63692 39896 ft 481 kts 299°
2026-05-03 21:34 -8.99851 115.57912 39893 ft 481 kts 299°
2026-05-03 21:34 -8.96387 115.52096 39890 ft 482 kts 299°
2026-05-03 21:35 -8.92926 115.46287 39890 ft 482 kts 299°
2026-05-03 21:35 -8.89480 115.40506 39887 ft 482 kts 299°
2026-05-03 21:36 -8.86012 115.34692 39889 ft 481 kts 299°
2026-05-03 21:36 -8.82545 115.28882 39889 ft 482 kts 299°
2026-05-03 21:37 -8.79093 115.23099 39880 ft 482 kts 299°
2026-05-03 21:37 -8.75391 115.17454 39885 ft 484 kts 308°
2026-05-03 21:38 -8.70428 115.12896 39885 ft 487 kts 321°
2026-05-03 21:38 -8.64958 115.08832 39887 ft 488 kts 322°
2026-05-03 21:39 -8.59412 115.04838 39894 ft 488 kts 322°
2026-05-03 21:39 -8.53915 115.00856 39903 ft 488 kts 322°
2026-05-03 21:40 -8.48425 114.96849 39911 ft 488 kts 322°
2026-05-03 21:40 -8.42926 114.92826 39913 ft 488 kts 322°
2026-05-03 21:41 -8.37404 114.88788 39907 ft 488 kts 322°
2026-05-03 21:41 -8.31930 114.84788 39907 ft 488 kts 322°
2026-05-03 21:42 -8.26427 114.80769 39902 ft 488 kts 322°
2026-05-03 21:42 -8.20910 114.76740 39900 ft 488 kts 322°
2026-05-03 21:43 -8.15439 114.72747 39905 ft 488 kts 322°
2026-05-03 21:43 -8.09934 114.68730 39896 ft 488 kts 322°
2026-05-03 21:44 -8.04449 114.64730 39901 ft 487 kts 322°
2026-05-03 21:44 -7.98956 114.60724 39898 ft 487 kts 322°
2026-05-03 21:45 -7.93457 114.56716 39902 ft 487 kts 322°
2026-05-03 21:45 -7.87987 114.52730 39898 ft 487 kts 322°
2026-05-03 21:46 -7.82489 114.48726 39898 ft 487 kts 323°
2026-05-03 21:46 -7.76975 114.44711 39896 ft 487 kts 323°
2026-05-03 21:47 -7.71514 114.40735 39894 ft 487 kts 323°
2026-05-03 21:47 -7.66018 114.36737 39895 ft 487 kts 323°
2026-05-03 21:48 -7.60540 114.32751 39887 ft 487 kts 323°
2026-05-03 21:48 -7.55038 114.28750 39881 ft 487 kts 323°
2026-05-03 21:49 -7.49543 114.24756 39886 ft 486 kts 323°
2026-05-03 21:49 -7.44058 114.20770 39879 ft 486 kts 323°
2026-05-03 21:50 -7.38601 114.16806 39878 ft 485 kts 323°
2026-05-03 21:50 -7.33109 114.12817 39878 ft 485 kts 323°
2026-05-03 21:51 -7.27667 114.08866 39883 ft 485 kts 323°
2026-05-03 21:51 -7.23099 114.05551 39882 ft 485 kts 323°
2026-05-03 21:52 -7.17623 114.01576 39879 ft 485 kts 323°
2026-05-03 21:52 -7.11254 113.96955 39879 ft 485 kts 323°
2026-05-03 21:53 -7.06659 113.93624 39879 ft 485 kts 323°
2026-05-03 21:53 -7.01212 113.89675 39877 ft 485 kts 323°
2026-05-03 21:54 -6.95709 113.85696 39875 ft 485 kts 323°
2026-05-03 21:54 -6.90273 113.81759 39874 ft 485 kts 323°
2026-05-03 21:55 -6.84794 113.77791 39875 ft 484 kts 323°
2026-05-03 21:55 -6.79317 113.73827 39875 ft 483 kts 324°
2026-05-03 21:56 -6.73890 113.69902 39875 ft 482 kts 324°
2026-05-03 21:56 -6.68440 113.65963 39878 ft 482 kts 324°
2026-05-03 21:57 -6.62988 113.62023 39875 ft 481 kts 324°
2026-05-03 21:57 -6.57589 113.58121 39882 ft 480 kts 324°
2026-05-03 21:58 -6.52154 113.54196 39875 ft 479 kts 324°
2026-05-03 21:58 -6.46720 113.50272 39870 ft 480 kts 324°
2026-05-03 21:59 -6.41327 113.46378 39869 ft 480 kts 324°
2026-05-03 21:59 -6.35889 113.42454 39872 ft 480 kts 324°
2026-05-03 22:00 -6.30494 113.38561 39866 ft 480 kts 325°
2026-05-03 22:00 -6.25230 113.34412 39867 ft 481 kts 316°
2026-05-03 22:01 -6.20877 113.29301 39872 ft 481 kts 309°
2026-05-03 22:01 -6.16802 113.24003 39874 ft 482 kts 308°
2026-05-03 22:02 -6.12727 113.18633 39868 ft 482 kts 308°
2026-05-03 22:02 -6.08666 113.13317 39870 ft 482 kts 308°
2026-05-03 22:03 -6.04558 113.07968 39872 ft 482 kts 308°
2026-05-03 22:03 -6.00447 113.02623 39870 ft 482 kts 308°
2026-05-03 22:04 -5.96359 112.97310 39873 ft 483 kts 308°
2026-05-03 22:04 -5.92245 112.91963 39870 ft 483 kts 308°
2026-05-03 22:05 -5.88134 112.86620 39868 ft 483 kts 308°
2026-05-03 22:05 -5.84035 112.81293 39867 ft 483 kts 308°
2026-05-03 22:06 -5.79917 112.75945 39865 ft 483 kts 308°
2026-05-03 22:06 -5.75829 112.70635 39869 ft 483 kts 308°
2026-05-03 22:07 -5.71703 112.65279 39869 ft 484 kts 308°
2026-05-03 22:07 -5.67604 112.59960 39873 ft 483 kts 308°
2026-05-03 22:08 -5.63477 112.54605 39867 ft 483 kts 308°
2026-05-03 22:08 -5.59373 112.49280 39866 ft 484 kts 308°
2026-05-03 22:09 -5.55238 112.43916 39874 ft 484 kts 308°
2026-05-03 22:10 -5.49068 112.35917 39866 ft 485 kts 308°
2026-05-03 22:10 -5.44930 112.30555 39869 ft 485 kts 308°
2026-05-03 22:11 -5.40800 112.25203 39871 ft 485 kts 308°
2026-05-03 22:11 -5.36675 112.19860 39870 ft 485 kts 308°
2026-05-03 22:12 -5.32526 112.14486 39866 ft 486 kts 308°
2026-05-03 22:12 -5.28401 112.09143 39870 ft 487 kts 309°
2026-05-03 22:13 -5.24269 112.03795 39870 ft 487 kts 309°
2026-05-03 22:13 -5.20112 111.98416 39870 ft 487 kts 309°
2026-05-03 22:14 -5.15950 111.93031 39870 ft 488 kts 309°
2026-05-03 22:14 -5.11778 111.87633 39873 ft 488 kts 309°
2026-05-03 22:15 -5.07627 111.82265 39873 ft 488 kts 309°
2026-05-03 22:15 -5.03450 111.76867 39873 ft 488 kts 309°
2026-05-03 22:16 -4.99307 111.71509 39870 ft 489 kts 309°
2026-05-03 22:16 -4.95120 111.66099 39872 ft 489 kts 309°
2026-05-03 22:17 -4.90962 111.60728 39871 ft 490 kts 309°
2026-05-03 22:17 -4.86778 111.55324 39872 ft 490 kts 309°
2026-05-03 22:18 -4.82584 111.49909 39872 ft 491 kts 309°
2026-05-03 22:18 -4.78415 111.44524 39872 ft 491 kts 309°
2026-05-03 22:19 -4.74223 111.39112 39871 ft 491 kts 309°
2026-05-03 22:19 -4.70041 111.33715 39874 ft 492 kts 309°
2026-05-03 22:20 -4.65833 111.28288 39873 ft 492 kts 309°
2026-05-03 22:20 -4.61653 111.22898 39877 ft 492 kts 309°
2026-05-03 22:21 -4.57449 111.17460 39877 ft 492 kts 308°
2026-05-03 22:21 -4.53287 111.12043 39876 ft 492 kts 308°
2026-05-03 22:22 -4.49128 111.06635 39876 ft 492 kts 308°
2026-05-03 22:22 -4.44942 111.01200 39877 ft 492 kts 308°
2026-05-03 22:23 -4.40747 110.95758 39873 ft 492 kts 308°
2026-05-03 22:23 -4.36583 110.90355 39874 ft 492 kts 308°
2026-05-03 22:24 -4.32386 110.84911 39873 ft 492 kts 308°
2026-05-03 22:24 -4.28188 110.79470 39873 ft 492 kts 308°
2026-05-03 22:25 -4.24013 110.74059 39874 ft 492 kts 308°
2026-05-03 22:25 -4.19824 110.68628 39876 ft 492 kts 308°
2026-05-03 22:26 -4.15648 110.63218 39875 ft 492 kts 308°
2026-05-03 22:26 -4.11455 110.57785 39875 ft 492 kts 308°
2026-05-03 22:27 -4.07258 110.52348 39876 ft 492 kts 308°
2026-05-03 22:27 -4.03076 110.46931 39875 ft 492 kts 308°
2026-05-03 22:28 -3.98910 110.41537 39873 ft 492 kts 308°
2026-05-03 22:28 -3.94693 110.36124 39871 ft 491 kts 310°
2026-05-03 22:29 -3.90233 110.30914 39873 ft 491 kts 312°
2026-05-03 22:29 -3.85742 110.25808 39874 ft 491 kts 312°
2026-05-03 22:30 -3.81249 110.20633 39873 ft 491 kts 311°
2026-05-03 22:30 -3.76816 110.15477 39873 ft 491 kts 311°
2026-05-03 22:31 -3.72362 110.10284 39877 ft 491 kts 311°
2026-05-03 22:31 -3.67894 110.05077 39873 ft 491 kts 311°
2026-05-03 22:32 -3.63463 109.99917 39875 ft 491 kts 311°
2026-05-03 22:32 -3.59002 109.94722 39875 ft 491 kts 311°
2026-05-03 22:33 -3.54572 109.89566 39876 ft 490 kts 311°
2026-05-03 22:33 -3.50117 109.84381 39875 ft 490 kts 311°
2026-05-03 22:34 -3.45667 109.79202 39874 ft 490 kts 311°
2026-05-03 22:34 -3.41242 109.74054 39873 ft 490 kts 311°
2026-05-03 22:35 -3.36793 109.68878 39873 ft 490 kts 311°
2026-05-03 22:35 -3.32345 109.63704 39873 ft 490 kts 311°
2026-05-03 22:36 -3.27919 109.58557 39873 ft 490 kts 312°
2026-05-03 22:36 -3.23471 109.53384 39876 ft 490 kts 312°
2026-05-03 22:37 -3.19024 109.48214 39876 ft 490 kts 312°
2026-05-03 22:37 -3.14604 109.43077 39876 ft 490 kts 312°
2026-05-03 22:38 -3.10159 109.37909 39875 ft 490 kts 312°
2026-05-03 22:38 -3.05693 109.32720 39876 ft 490 kts 312°
2026-05-03 22:39 -3.01235 109.27539 39875 ft 491 kts 312°
2026-05-03 22:39 -2.96807 109.22395 39876 ft 491 kts 312°
2026-05-03 22:40 -2.92335 109.17200 39875 ft 491 kts 312°
2026-05-03 22:40 -2.87875 109.12026 39877 ft 491 kts 312°
2026-05-03 22:41 -2.84156 109.07725 39876 ft 491 kts 312°
2026-05-03 22:41 -2.78949 109.01701 39881 ft 492 kts 312°
2026-05-03 22:42 -2.75223 108.97392 39873 ft 492 kts 312°
2026-05-03 22:42 -2.70741 108.92209 39873 ft 492 kts 312°
2026-05-03 22:43 -2.66254 108.87021 39875 ft 492 kts 312°
2026-05-03 22:43 -2.61781 108.81849 39881 ft 493 kts 312°
2026-05-03 22:44 -2.57292 108.76660 39876 ft 493 kts 312°
2026-05-03 22:44 -2.52799 108.71468 39880 ft 493 kts 312°
2026-05-03 22:45 -2.48337 108.66311 39876 ft 493 kts 312°
2026-05-03 22:45 -2.43838 108.61108 39878 ft 493 kts 312°
2026-05-03 22:46 -2.39350 108.55893 39873 ft 493 kts 312°
2026-05-03 22:46 -2.34893 108.50717 39871 ft 494 kts 312°
2026-05-03 22:47 -2.30398 108.45503 39874 ft 494 kts 312°
2026-05-03 22:47 -2.25906 108.40295 39873 ft 494 kts 312°
2026-05-03 22:48 -2.21443 108.35122 39870 ft 494 kts 312°
2026-05-03 22:48 -2.16953 108.29917 39871 ft 494 kts 312°
2026-05-03 22:49 -2.12463 108.24714 39871 ft 494 kts 312°
2026-05-03 22:49 -2.07971 108.19506 39873 ft 494 kts 312°
2026-05-03 22:50 -2.03502 108.14334 39871 ft 494 kts 312°
2026-05-03 22:50 -1.99003 108.09117 39870 ft 494 kts 312°
2026-05-03 22:51 -1.94514 108.03905 39869 ft 494 kts 312°
2026-05-03 22:51 -1.90061 107.98739 39876 ft 494 kts 312°
2026-05-03 22:52 -1.85560 107.93520 39878 ft 493 kts 312°
2026-05-03 22:52 -1.81094 107.88343 39875 ft 493 kts 312°
2026-05-03 22:53 -1.76609 107.83143 39876 ft 493 kts 312°
2026-05-03 22:53 -1.72122 107.77943 39871 ft 493 kts 312°
2026-05-03 22:54 -1.67637 107.72744 39869 ft 493 kts 312°
2026-05-03 22:54 -1.63170 107.67567 39871 ft 493 kts 312°
2026-05-03 22:55 -1.58684 107.62369 39877 ft 493 kts 312°
2026-05-03 22:55 -1.54219 107.57195 39873 ft 493 kts 312°
2026-05-03 22:56 -1.49718 107.51979 39871 ft 493 kts 312°
2026-05-03 22:56 -1.45263 107.46818 39879 ft 493 kts 312°
2026-05-03 22:57 -1.40774 107.41616 39877 ft 493 kts 312°
2026-05-03 22:57 -1.36290 107.36423 39878 ft 493 kts 312°
2026-05-03 22:58 -1.31786 107.31307 39873 ft 492 kts 313°
2026-05-03 22:58 -1.27219 107.26184 39870 ft 492 kts 313°
2026-05-03 22:59 -1.22657 107.21057 39872 ft 492 kts 313°
2026-05-03 22:59 -1.18137 107.15965 39874 ft 493 kts 313°
2026-05-03 23:00 -1.13583 107.10828 39875 ft 493 kts 313°
2026-05-03 23:00 -1.09025 107.05688 39871 ft 493 kts 313°
2026-05-03 23:01 -1.04495 107.00579 39870 ft 493 kts 313°
2026-05-03 23:01 -0.99933 106.95436 39870 ft 493 kts 313°
2026-05-03 23:02 -0.95405 106.90330 39877 ft 493 kts 313°
2026-05-03 23:02 -0.90846 106.85191 39868 ft 494 kts 313°
2026-05-03 23:03 -0.86281 106.80044 39878 ft 494 kts 313°
2026-05-03 23:03 -0.81734 106.74918 39873 ft 494 kts 313°
2026-05-03 23:04 -0.77171 106.69774 39875 ft 495 kts 313°
2026-05-03 23:04 -0.72625 106.64651 39874 ft 495 kts 313°
2026-05-03 23:05 -0.68042 106.59485 39875 ft 495 kts 313°
2026-05-03 23:05 -0.63491 106.54356 39874 ft 495 kts 313°
2026-05-03 23:06 -0.58912 106.49185 39870 ft 495 kts 312°
2026-05-03 23:06 -0.54590 106.44243 39870 ft 496 kts 312°
2026-05-03 23:07 -0.50058 106.39049 39869 ft 496 kts 312°
2026-05-03 23:07 -0.45509 106.33845 39872 ft 496 kts 312°
2026-05-03 23:08 -0.40989 106.28682 39872 ft 496 kts 312°
2026-05-03 23:08 -0.36449 106.23497 39873 ft 496 kts 312°
2026-05-03 23:09 -0.31899 106.18302 39873 ft 496 kts 312°
2026-05-03 23:09 -0.27378 106.13139 39872 ft 496 kts 312°
2026-05-03 23:10 -0.22836 106.07952 39873 ft 496 kts 312°
2026-05-03 23:10 -0.18283 106.02752 39876 ft 496 kts 312°
2026-05-03 23:11 -0.13732 105.97555 39874 ft 496 kts 312°
2026-05-03 23:11 -0.09212 105.92394 39876 ft 495 kts 312°
2026-05-03 23:12 -0.04660 105.87195 39875 ft 495 kts 312°
2026-05-03 23:12 -0.00146 105.82040 39877 ft 495 kts 312°
2026-05-03 23:13 0.04371 105.76883 39877 ft 488 kts 312°
2026-05-03 23:13 0.08834 105.71786 39879 ft 486 kts 312°
2026-05-03 23:14 0.13288 105.66700 39876 ft 486 kts 312°
2026-05-03 23:14 0.17719 105.61640 39877 ft 486 kts 312°
2026-05-03 23:15 0.22188 105.56537 39875 ft 486 kts 312°
2026-05-03 23:15 0.26613 105.51482 39876 ft 486 kts 312°
2026-05-03 23:16 0.30936 105.46545 39878 ft 486 kts 312°
2026-05-03 23:16 0.35407 105.41439 39878 ft 486 kts 312°
2026-05-03 23:17 0.39809 105.36342 39874 ft 487 kts 309°
2026-05-03 23:17 0.43535 105.30661 39878 ft 488 kts 302°
2026-05-03 23:18 0.47001 105.24854 39879 ft 489 kts 302°
2026-05-03 23:18 0.50453 105.18984 39880 ft 489 kts 301°
2026-05-03 23:19 0.53902 105.13113 39880 ft 489 kts 301°
2026-05-03 23:19 0.57347 105.07275 39881 ft 489 kts 301°
2026-05-03 23:20 0.60669 105.01658 39880 ft 489 kts 301°
2026-05-03 23:20 0.64113 104.95838 39881 ft 489 kts 301°
2026-05-03 23:21 0.67585 104.89970 39882 ft 490 kts 301°
2026-05-03 23:21 0.71032 104.84142 39882 ft 490 kts 301°
2026-05-03 23:22 0.76231 104.75353 39881 ft 490 kts 301°
2026-05-03 23:22 0.79701 104.69485 39882 ft 490 kts 301°
2026-05-03 23:23 0.83162 104.63633 39885 ft 490 kts 301°
2026-05-03 23:23 0.86632 104.57765 39885 ft 490 kts 301°
2026-05-03 23:24 0.90107 104.51890 39886 ft 490 kts 301°
2026-05-03 23:24 0.93337 104.45884 39884 ft 491 kts 296°
2026-05-03 23:25 0.96195 104.39682 39886 ft 491 kts 295°
2026-05-03 23:25 0.99057 104.33507 39885 ft 492 kts 296°
2026-05-03 23:26 1.02010 104.27319 39887 ft 492 kts 296°
2026-05-03 23:26 1.04988 104.21157 39886 ft 492 kts 296°
2026-05-03 23:27 1.07962 104.15025 39884 ft 492 kts 296°
2026-05-03 23:27 1.10946 104.08854 39884 ft 492 kts 296°
2026-05-03 23:28 1.13929 104.02677 39884 ft 492 kts 296°
2026-05-03 23:28 1.16892 103.96543 39887 ft 492 kts 296°
2026-05-03 23:29 1.19878 103.90375 39906 ft 492 kts 296°
2026-05-03 23:29 1.23871 103.84905 39909 ft 490 kts 318°
2026-05-03 23:30 1.26579 103.82862 39909 ft 489 kts 330°
2026-05-03 23:30 1.28566 103.81777 39912 ft 489 kts 333°
2026-05-03 23:30 1.34729 103.78869 39886 ft 490 kts 336°
2026-05-03 23:31 1.40901 103.75963 39884 ft 490 kts 333°
2026-05-03 23:31 1.46950 103.72855 39885 ft 491 kts 333°
2026-05-03 23:32 1.53258 103.70232 39885 ft 490 kts 341°
2026-05-03 23:32 1.59696 103.67990 39886 ft 490 kts 337°
2026-05-03 23:33 1.65489 103.64413 39882 ft 491 kts 319°
2026-05-03 23:33 1.69785 103.59183 39888 ft 491 kts 299°
2026-05-03 23:34 1.72924 103.53100 39888 ft 492 kts 296°
2026-05-03 23:34 1.75867 103.46952 39889 ft 492 kts 296°
2026-05-03 23:35 1.78847 103.40761 39819 ft 491 kts 296°
2026-05-03 23:35 1.80340 103.37691 39211 ft 491 kts 296°
2026-05-03 23:35 1.81852 103.34603 38398 ft 495 kts 296°
2026-05-03 23:36 1.83351 103.31546 37646 ft 496 kts 296°
2026-05-03 23:36 1.84873 103.28446 36946 ft 496 kts 296°
2026-05-03 23:36 1.86398 103.25348 36253 ft 496 kts 296°
2026-05-03 23:36 1.87925 103.22237 35537 ft 497 kts 296°
2026-05-03 23:37 1.89449 103.19127 34825 ft 499 kts 296°
2026-05-03 23:37 1.90965 103.16032 33991 ft 502 kts 297°
2026-05-03 23:37 1.92509 103.12883 33291 ft 501 kts 297°
2026-05-03 23:37 1.94037 103.09766 32742 ft 497 kts 297°
2026-05-03 23:38 1.95550 103.06680 32157 ft 493 kts 296°
2026-05-03 23:38 1.97054 103.03613 31573 ft 489 kts 296°
2026-05-03 23:38 1.98551 103.00562 31006 ft 487 kts 296°
2026-05-03 23:38 2.00021 102.97563 30445 ft 484 kts 296°
2026-05-03 23:39 2.01497 102.94552 29865 ft 482 kts 296°
2026-05-03 23:39 2.02972 102.91543 29236 ft 478 kts 296°
2026-05-03 23:39 2.04433 102.88562 28682 ft 474 kts 296°
2026-05-03 23:39 2.05879 102.85614 28120 ft 470 kts 296°
2026-05-03 23:40 2.07307 102.82687 27566 ft 466 kts 296°
2026-05-03 23:40 2.08721 102.79784 27007 ft 462 kts 296°
2026-05-03 23:40 2.10115 102.76925 26451 ft 459 kts 296°
2026-05-03 23:40 2.11509 102.74064 25903 ft 456 kts 296°
2026-05-03 23:41 2.12896 102.71221 25335 ft 453 kts 296°
2026-05-03 23:41 2.14277 102.68392 24782 ft 451 kts 296°
2026-05-03 23:41 2.15793 102.65657 24215 ft 448 kts 306°
2026-05-03 23:41 2.17888 102.63428 23662 ft 444 kts 323°
2026-05-03 23:42 2.20515 102.61826 23037 ft 439 kts 335°
2026-05-03 23:42 2.23243 102.60501 22639 ft 431 kts 335°
2026-05-03 23:42 2.25931 102.59196 22414 ft 429 kts 335°
2026-05-03 23:42 2.28607 102.57872 22147 ft 429 kts 334°
2026-05-03 23:43 2.31282 102.56531 21879 ft 428 kts 334°
2026-05-03 23:43 2.33907 102.55206 21624 ft 426 kts 334°
2026-05-03 23:43 2.36550 102.53865 21366 ft 425 kts 334°
2026-05-03 23:43 2.39183 102.52527 21103 ft 423 kts 334°
2026-05-03 23:44 2.41811 102.51190 20840 ft 422 kts 334°
2026-05-03 23:44 2.44425 102.49859 20575 ft 420 kts 334°
2026-05-03 23:44 2.47026 102.48534 20318 ft 419 kts 334°
2026-05-03 23:44 2.49586 102.47216 20062 ft 417 kts 333°
2026-05-03 23:45 2.51950 102.45540 19798 ft 417 kts 317°
2026-05-03 23:45 2.53976 102.43456 19528 ft 416 kts 313°
2026-05-03 23:45 2.55923 102.41317 19261 ft 414 kts 313°
2026-05-03 23:45 2.57865 102.39189 19013 ft 413 kts 313°
2026-05-03 23:46 2.59803 102.37075 18759 ft 411 kts 313°
2026-05-03 23:46 2.61713 102.34992 18512 ft 410 kts 313°
2026-05-03 23:46 2.63640 102.32893 18249 ft 409 kts 313°
2026-05-03 23:46 2.65570 102.30795 17963 ft 407 kts 313°
2026-05-03 23:47 2.67490 102.28710 17714 ft 405 kts 313°
2026-05-03 23:47 2.69401 102.26636 17461 ft 403 kts 313°
2026-05-03 23:47 2.71303 102.24615 17216 ft 401 kts 316°
2026-05-03 23:47 2.73319 102.22687 16958 ft 399 kts 317°
2026-05-03 23:48 2.75350 102.20787 16836 ft 398 kts 317°
2026-05-03 23:48 2.77370 102.18884 16829 ft 398 kts 317°
2026-05-03 23:48 2.79508 102.17135 16823 ft 396 kts 330°
2026-05-03 23:48 2.82018 102.16152 16741 ft 381 kts 351°
2026-05-03 23:49 2.84558 102.16090 16640 ft 362 kts
2026-05-03 23:49 2.87024 102.16383 16503 ft 349 kts
2026-05-03 23:49 2.89429 102.16324 16288 ft 342 kts 354°
2026-05-03 23:49 2.91728 102.15947 16054 ft 334 kts 351°
2026-05-03 23:50 2.94003 102.15513 15816 ft 331 kts 351°
2026-05-03 23:50 2.95488 102.15158 15658 ft 331 kts 344°
2026-05-03 23:50 2.98326 102.13933 15349 ft 331 kts 335°
2026-05-03 23:50 3.00383 102.12905 15114 ft 330 kts 335°
2026-05-03 23:51 3.02410 102.11838 14879 ft 329 kts 330°
2026-05-03 23:51 3.04214 102.10469 14659 ft 329 kts 320°
2026-05-03 23:51 3.05924 102.08962 14433 ft 328 kts 319°
2026-05-03 23:51 3.07624 102.07444 14202 ft 326 kts 319°
2026-05-03 23:52 3.09152 102.05770 13988 ft 326 kts 307°
2026-05-03 23:52 3.10432 102.03907 13775 ft 325 kts 304°
2026-05-03 23:52 3.11671 102.02018 13521 ft 324 kts 304°
2026-05-03 23:52 3.12850 102.00103 13258 ft 323 kts 297°
2026-05-03 23:53 3.13690 101.98018 13024 ft 321 kts 289°
2026-05-03 23:53 3.14253 101.95865 12907 ft 321 kts 277°
2026-05-03 23:53 3.14096 101.93677 12902 ft 319 kts 253°
2026-05-03 23:53 3.13053 101.91742 12924 ft 317 kts 228°
2026-05-03 23:54 3.11330 101.90416 12936 ft 314 kts 204°
2026-05-03 23:54 3.09247 101.89902 12927 ft 310 kts 179°
2026-05-03 23:54 3.07124 101.90198 13002 ft 308 kts 165°
2026-05-03 23:54 3.05013 101.90449 13010 ft 311 kts 181°
2026-05-03 23:55 3.02857 101.90173 13004 ft 312 kts 189°
2026-05-03 23:55 3.00718 101.89761 13000 ft 313 kts 189°
2026-05-03 23:55 2.98576 101.89339 13003 ft 313 kts 189°
2026-05-03 23:55 2.96471 101.88926 12994 ft 313 kts 189°
2026-05-03 23:56 2.94353 101.88513 13000 ft 313 kts 189°
2026-05-03 23:56 2.92215 101.88096 12999 ft 313 kts 189°
2026-05-03 23:56 2.90071 101.87680 12999 ft 313 kts 189°
2026-05-03 23:56 2.87947 101.87259 12996 ft 313 kts 190°
2026-05-03 23:57 2.85918 101.86441 12994 ft 317 kts 214°
2026-05-03 23:57 2.84405 101.84853 13000 ft 316 kts 234°
2026-05-03 23:57 2.83209 101.83066 12996 ft 301 kts 236°
2026-05-03 23:57 2.82008 101.81397 12995 ft 293 kts 226°
2026-05-03 23:58 2.80332 101.80300 12997 ft 288 kts 195°
2026-05-03 23:58 2.78388 101.80189 12995 ft 283 kts 166°
2026-05-03 23:58 2.76605 101.80967 12993 ft 280 kts 146°
2026-05-03 23:58 2.74981 101.82054 12990 ft 281 kts 143°
2026-05-03 23:59 2.73367 101.83171 12993 ft 282 kts 144°
2026-05-03 23:59 2.71740 101.84284 12992 ft 282 kts 144°
2026-05-03 23:59 2.70113 101.85389 12991 ft 282 kts 144°
2026-05-03 23:59 2.68506 101.86473 12992 ft 282 kts 144°
2026-05-04 00:00 2.66890 101.87560 13000 ft 272 kts 144°
2026-05-04 00:00 2.65351 101.88592 13002 ft 260 kts 144°
2026-05-04 00:00 2.63874 101.89583 12993 ft 256 kts 144°
2026-05-04 00:00 2.62385 101.90583 13002 ft 257 kts 144°
2026-05-04 00:01 2.60895 101.91590 12987 ft 256 kts 144°
2026-05-04 00:01 2.59451 101.92556 12599 ft 248 kts 144°
2026-05-04 00:01 2.57983 101.93539 12062 ft 258 kts 145°
2026-05-04 00:01 2.56513 101.94524 11483 ft 256 kts 145°
2026-05-04 00:02 2.55004 101.95469 10843 ft 256 kts 153°
2026-05-04 00:02 2.53263 101.95810 10176 ft 258 kts 186°
2026-05-04 00:02 2.51640 101.95110 9572 ft 257 kts 221°
2026-05-04 00:02 2.50543 101.93746 8986 ft 254 kts 237°
2026-05-04 00:03 2.49598 101.92260 8377 ft 252 kts 237°
2026-05-04 00:03 2.48912 101.90703 8003 ft 239 kts 262°
2026-05-04 00:03 2.49160 101.89102 7431 ft 236 kts 298°
2026-05-04 00:03 2.50309 101.87948 6735 ft 239 kts 330°
2026-05-04 00:04 2.51817 101.87156 5847 ft 251 kts 333°
2026-05-04 00:04 2.53382 101.86320 5034 ft 256 kts 330°
2026-05-04 00:04 2.54895 101.85427 4560 ft 245 kts 328°
2026-05-04 00:04 2.56273 101.84599 4374 ft 225 kts 330°
2026-05-04 00:05 2.57621 101.83792 3989 ft 228 kts 327°
2026-05-04 00:05 2.58947 101.82903 3644 ft 230 kts 325°
2026-05-04 00:05 2.60269 101.82006 3334 ft 229 kts 326°
2026-05-04 00:05 2.61590 101.81123 3056 ft 226 kts 326°
2026-05-04 00:06 2.62861 101.80268 2780 ft 212 kts 325°
2026-05-04 00:06 2.64028 101.79482 2554 ft 196 kts 325°
2026-05-04 00:06 2.65115 101.78750 2289 ft 180 kts 325°
2026-05-04 00:06 2.66111 101.78079 2063 ft 165 kts 325°
2026-05-04 00:07 2.67029 101.77461 1853 ft 153 kts 325°
2026-05-04 00:07 2.67884 101.76885 1653 ft 143 kts 325°
2026-05-04 00:07 2.68686 101.76345 1471 ft 136 kts 326°
2026-05-04 00:07 2.69468 101.75817 1303 ft 135 kts 326°
2026-05-04 00:08 2.70250 101.75291 1128 ft 136 kts 326°
2026-05-04 00:08 2.71034 101.74762 960 ft 136 kts 326°
2026-05-04 00:08 2.71820 101.74233 797 ft 136 kts 326°
2026-05-04 00:08 2.72592 101.73713 631 ft 135 kts 326°
2026-05-04 00:09 2.73367 101.73182 411 ft 134 kts 324°
2026-05-04 00:09 2.74145 101.72670 271 ft 133 kts 326°
2026-05-04 00:09 2.74923 101.72149 124 ft 135 kts 325°
2026-05-04 00:09 2.75693 101.71631 87 ft 129 kts 326°
2026-05-04 00:10 2.76297 101.71228 67 ft 66 kts 326°
2026-05-04 00:10 2.76527 101.71025 65 ft 39 kts 302°
2026-05-04 00:10 2.76576 101.70922 65 ft 7 kts 289°
2026-05-04 00:10 2.76571 101.70864 66 ft 10 kts 242°
2026-05-04 00:11 2.76509 101.70857 64 ft 11 kts 152°
2026-05-04 00:11 2.76439 101.70902 64 ft 13 kts 147°
2026-05-04 00:11 2.76375 101.70945 65 ft 11 kts 146°
2026-05-04 00:11 2.76301 101.70994 65 ft 14 kts 146°
2026-05-04 00:12 2.76210 101.71055 63 ft 17 kts 146°
2026-05-04 00:12 2.76111 101.71121 65 ft 18 kts 146°
2026-05-04 00:12 2.76021 101.71182 74 ft 11 kts 146°
2026-05-04 00:12 2.75951 101.71230 67 ft 14 kts 146°
2026-05-04 00:13 2.75870 101.71284 84 ft 14 kts 146°
2026-05-04 00:13 2.75788 101.71338 84 ft 15 kts 146°
2026-05-04 00:13 2.75703 101.71395 84 ft 14 kts 146°
2026-05-04 00:13 2.75614 101.71456 81 ft 17 kts 146°
2026-05-04 00:14 2.75510 101.71526 84 ft 19 kts 146°
2026-05-04 00:14 2.75389 101.71609 66 ft 23 kts 146°
2026-05-04 00:14 2.75279 101.71681 70 ft 13 kts 147°
2026-05-04 00:14 2.75196 101.71736 83 ft 16 kts 146°
2026-05-04 00:15 2.75097 101.71802 85 ft 18 kts 146°
2026-05-04 00:15 2.75005 101.71863 87 ft 13 kts 146°
2026-05-04 00:15 2.74926 101.71916 88 ft 14 kts 146°
2026-05-04 00:15 2.74835 101.71976 88 ft 17 kts 146°
2026-05-04 00:16 2.74749 101.72025 88 ft 8 kts 174°
2026-05-04 00:16 2.74703 101.71993 87 ft 10 kts 233°
2026-05-04 00:16 2.74648 101.71912 84 ft 17 kts 236°
2026-05-04 00:16 2.74592 101.71829 85 ft 11 kts 236°
2026-05-04 00:17 2.74550 101.71764 85 ft 8 kts 237°
2026-05-04 00:17 2.74531 101.71735 82 ft 6 kts 236°
2026-05-04 00:17 2.74507 101.71700 84 ft 7 kts 236°
2026-05-04 00:17 2.74503 101.71695 83 ft 0 kts 236°
2026-05-04 00:18 2.74500 101.71690 83 ft 3 kts 236°
2026-05-04 00:18 2.74487 101.71670 84 ft 1 kts 236°
2026-05-04 00:18 2.74472 101.71648 85 ft 2 kts 236°
2026-05-04 00:19 2.74458 101.71627 81 ft 7 kts 236°
2026-05-04 00:19 2.74426 101.71581 83 ft 8 kts 236°
2026-05-04 00:19 2.74390 101.71528 81 ft 11 kts 236°
2026-05-04 00:19 2.74374 101.71503 82 ft 5 kts 239°
2026-05-04 00:20 2.74380 101.71471 85 ft 6 kts 303°
2026-05-04 00:20 2.74422 101.71437 83 ft 10 kts 323°
2026-05-04 00:20 2.74459 101.71412 85 ft 4 kts 333°
2026-05-04 00:20 2.74479 101.71415 82 ft 3 kts 21°
2026-05-04 00:21 2.74502 101.71436 82 ft 5 kts 52°
2026-05-04 00:21 2.74513 101.71452 85 ft 0 kts 54°
2026-05-04 00:21 2.74517 101.71458 84 ft 2 kts 54°
2026-05-04 00:21 2.74518 101.71459 84 ft 0 kts 54°